Tracking 28790 objects as of 19-Apr-2024
HD Live streaming from Space Station
objects crossing your sky now

COSMOS 768

Track COSMOS 768 now!
10-day predictions
COSMOS 768 is classified as:


NORAD ID: 8292
Int'l Code: 1975-086H
Perigee: 1,478.2 km
Apogee: 1,497.8 km
Inclination: 74.0 °
Period: 115.6 minutes
Semi major axis: 7859 km
RCS: 0.6843 m2 (medium)
Launch date: September 17, 1975
Source: Commonwealth of Independent States (former USSR) (CIS)
Launch site: PLESETSK MISSILE AND SPACE COMPLEX (PKMTR)
Your satellite tracking list
Your tracking list is empty




NASA's NSSDC Master Catalog

Two Line Element Set (TLE):
1  8292U 75086H   24110.09749319  .00000009  00000-0  17435-3 0  9999
2  8292  74.0086  75.9887 0012477  25.3626  49.6954 12.46096874210453
Source of the keplerian elements: AFSPC